AO-07 1 07530U 74089B 23138.51290132 -.00000050 00000-0 -24438-4 0 9995 2 07530 101.9461 124.9913 0012552 119.3269 354.9188 12.53664234219459 UO-11 1 14781U 84021B 23138.54177776 .00001314 00000-0 16075-3 0 9998 2 14781 97.6558 116.6263 0006821 307.0113 53.0478 14.84812444 89745 AO-16 1 20439U 90005D 23138.57863694 .00000157 00000-0 74445-4 0 9998 2 20439 98.8823 128.0524 0009723 293.0555 180.7921 14.33095418740669 LO-19 1 20442U 90005G 23138.50129819 .00000163 00000-0 76068-4 0 9999 2 20442 98.8422 114.3862 0010574 265.7176 94.2799 14.33249760741093 HUBBLE 1 20580U 90037B 23138.32735568 .00003204 00000-0 16627-3 0 9994 2 20580 28.4687 106.6511 0002579 59.1093 58.9840 15.13048757616932 MET-2/21 1 22782U 93055A 23138.48670038 .00000034 00000-0 17424-4 0 9995 2 22782 82.5468 108.3397 0023403 125.2017 357.1323 13.83885811500349 AO-27 1 22825U 93061C 23138.54717577 .00000115 00000-0 62008-4 0 9995 2 22825 98.8432 180.9564 0009048 148.4797 211.6928 14.30298417546057 IO-26 1 22826U 93061D 23138.55807325 .00000133 00000-0 68557-4 0 9993 2 22826 98.8378 180.8313 0009791 135.8572 224.3393 14.30658349546325 FO-29 1 24278U 96046B 23138.54019006 .00000014 00000-0 47136-4 0 9990 2 24278 98.5270 121.1401 0350948 133.6813 229.3986 13.53143965320925 NOAA-15 1 25338U 98030A 23138.62367063 .00000215 00000-0 10772-3 0 9999 2 25338 98.6078 168.1834 0011134 45.6674 314.5417 14.26315647301046 GO-32 1 25397U 98043D 23138.49598705 .00000070 00000-0 50529-4 0 9996 2 25397 98.8668 95.6997 0000959 163.1180 197.0030 14.23870198291107 ISS 1 25544U 98067A 23138.86946505 -.00404279 00000-0 -74572-2 0 9995 2 25544 51.6431 113.8899 0006661 357.1286 88.0982 15.49924990397244 NO-44 1 26931U 01043C 23138.56478048 .00000154 00000-0 89966-4 0 9990 2 26931 67.0510 273.3099 0007714 276.7667 83.2556 14.30911189129340 SO-50 1 27607U 02058C 23138.58220002 .00000879 00000-0 13871-3 0 9990 2 27607 64.5553 355.6875 0071654 230.5967 128.8778 14.77222832 97854 CO-55 1 27844U 03031E 23138.50221002 .00000319 00000-0 16151-3 0 9991 2 27844 98.6782 146.1940 0009231 205.0252 155.0480 14.22763121 31515 CO-57 1 27848U 03031J 23138.50310799 .00000277 00000-0 14435-3 0 9993 2 27848 98.6820 146.6218 0008830 221.1809 138.8704 14.22275863 31289 RS-22 1 27939U 03042A 23138.70065962 .00001061 00000-0 19238-3 0 9995 2 27939 98.2392 285.4484 0011662 225.4863 259.6981 14.68312744 50214 NOAA-18 1 28654U 05018A 23138.67866409 .00000195 00000-0 12820-3 0 9993 2 28654 98.9099 213.2112 0015398 103.5512 256.7377 14.12935992927400 CO-58 1 28895U 05043F 23137.34937292 .00001502 00000-0 28518-3 0 9994 2 28895 98.1487 269.6553 0016767 165.4550 194.7139 14.65562610936299 CO-65 1 32785U 08021C 23138.49062546 .00002327 00000-0 23430-3 0 9998 2 32785 97.7039 105.0905 0011629 194.4188 165.6701 14.92080695816393 AAUSAT2 1 32788U 08021F 23138.66972690 .00006986 00000-0 51815-3 0 9993 2 32788 97.5601 118.7627 0011007 95.2870 264.9612 15.03338246818776 DO-64 1 32789U 08021G 23138.50831341 .00037236 00000-0 11433-2 0 9997 2 32789 97.3048 160.2616 0006563 198.8946 161.2054 15.33613151822830 CO-66 1 32791U 08021J 23138.45181742 .00004221 00000-0 37707-3 0 9998 2 32791 97.6530 110.3240 0013082 145.3542 214.8535 14.96376615817218 RS-30 1 32953U 08025A 23138.82861508 .00000039 00000-0 20934-3 0 9995 2 32953 82.5023 335.3616 0018677 247.9529 111.9567 12.43123627680003 PRISM 1 33493U 09002B 23138.55846267 .00007271 00000-0 50331-3 0 9995 2 33493 98.2467 151.0146 0017924 141.0017 219.2504 15.05883645779286 NOAA-19 1 33591U 09005A 23138.64856232 .00000204 00000-0 13480-3 0 9993 2 33591 99.1019 184.1005 0013193 329.8070 30.2339 14.12754370735770 SRMSAT 1 37841U 11058D 23138.10873595 .00000469 00000-0 11226-3 0 9997 2 37841 19.9733 31.8767 0011865 61.8961 88.3321 14.10890955598550 HRBE 1 37855U 11061F 23138.43046720 .00017184 00000-0 56038-3 0 9996 2 37855 101.7055 83.4735 0123381 130.9596 230.2382 15.24837836632020 RS-40 1 38735U 12041C 23138.52393467 .00000014 00000-0 28348-4 0 9994 2 38735 82.4788 56.5849 0017818 5.1288 354.9971 12.42593608490136 ZACUBE-1 1 39417U 13066B 23138.44717749 .00003599 00000-0 41879-3 0 9998 2 39417 97.6833 101.1640 0055922 27.0971 333.3143 14.84772847512789 Delfi-N3xt 1 39428U 13066N 23138.34374607 .00003288 00000-0 47996-3 0 9992 2 39428 97.8338 64.2430 0109429 285.6361 73.2794 14.72411047507747 GOMX-1 1 39430U 13066Q 23138.68541188 .00001995 00000-0 35158-3 0 9992 2 39430 97.7837 31.5432 0147335 66.9258 294.7400 14.61689501505220 LO-74 1 39440U 13066AA 23138.40756177 .00002341 00000-0 30675-3 0 9994 2 39440 97.7710 88.1408 0077020 123.3490 237.5125 14.79219239509758 AO-73 1 39444U 13066AE 23138.44360789 .00004447 00000-0 49651-3 0 9995 2 39444 97.6696 103.6817 0053735 13.0299 347.2291 14.86430241511224 SPROUT 1 39770U 14029E 23138.57579545 .00014834 00000-0 11598-2 0 9992 2 39770 97.9772 264.9688 0006654 47.5682 312.6103 15.01162721487714 DTUSAT-2 1 40030U 14033W 23138.38966290 .00003890 00000-0 38104-3 0 9997 2 40030 97.9669 78.5548 0012014 38.4521 321.7551 14.92831886483552 EO-80 1 40032U 14033Y 23138.36550839 .00003512 00000-0 34453-3 0 9999 2 40032 97.9664 78.5479 0011818 38.6748 321.5314 14.92831964483525 HODOYOSHI-1 1 40299U 14070B 23138.67636746 .00008313 00000-0 26191-3 0 9995 2 40299 97.1961 202.1174 0011143 32.5948 327.5981 15.33091092474291 FIREBIRD FU3 1 40377U 15003B 23138.36630091 .00114044 00000-0 10765-2 0 9990 2 40377 99.0760 88.6349 0040937 314.1060 45.6828 15.65566270459969 FIREBIRD FU4 1 40378U 15003C 23138.43407170 .00112006 00000-0 10563-2 0 9991 2 40378 99.0783 89.0414 0041063 312.7418 47.0383 15.65588258459989 GRIFEX 1 40379U 15003D 23138.47738775 .00035897 00000-0 82327-3 0 9994 2 40379 99.0792 68.1218 0084767 15.2522 345.1244 15.38887077458819 XW-2C 1 40906U 15049H 23138.65058046 .00008814 00000-0 34744-3 0 9995 2 40906 97.4938 145.7046 0009707 263.5104 96.5029 15.25779413423893 XW-2D 1 40907U 15049J 23138.64011365 .00010855 00000-0 40467-3 0 9995 2 40907 97.4917 146.1494 0008809 254.6051 105.4215 15.27581762423973 LILACSAT-2 1 40908U 15049K 23138.72259962 .00004133 00000-0 19820-3 0 9993 2 40908 97.5246 141.8701 0012230 295.9663 64.0311 15.19402076423320 XW-2E 1 40909U 15049L 23138.64103272 .00021322 00000-0 59397-3 0 9999 2 40909 97.4535 152.1086 0007960 210.2917 149.7868 15.36784914424601 XW-2F 1 40910U 15049M 23138.62631321 .00020534 00000-0 58368-3 0 9991 2 40910 97.4627 151.3238 0008620 214.7056 145.3626 15.36157112424352 XW-2B 1 40911U 15049N 23138.76291811 .00010480 00000-0 39328-3 0 9997 2 40911 97.4897 146.7279 0008753 255.9773 104.0493 15.27371310423873 DCBB 1 40912U 15049P 23138.63109289 .00026702 00000-0 63040-3 0 9993 2 40912 97.4183 155.8749 0010077 173.4529 186.6852 15.41791258425050 IO-86 1 40931U 15052B 23138.24954046 .00001127 00000-0 66510-4 0 9994 2 40931 6.0007 300.2131 0013500 232.5722 127.3176 14.77209055412806 ATHENOXAT-1 1 41168U 15077C 23138.22822969 .00100371 00000-0 15680-2 0 9991 2 41168 14.9865 95.5188 0005599 303.4079 56.5712 15.51915945411642 ChubuSat-2 1 41338U 16012B 23138.14160557 .00003111 00000-0 21448-3 0 9993 2 41338 31.0038 49.8647 0012527 239.9688 119.9706 15.03787585397850 ChubuSat-3 1 41339U 16012C 23138.13363791 .00002852 00000-0 19680-3 0 9994 2 41339 31.0101 46.9757 0012447 247.1909 112.7413 15.03662629397756 Horyu-4 1 41340U 16012D 23138.00149757 .00005638 00000-0 35599-3 0 9998 2 41340 31.0055 17.4227 0012040 300.4757 59.4691 15.07514251398166 e-st@r-II 1 41459U 16025D 23138.50861622 .00023828 00000-0 72167-3 0 9993 2 41459 98.1884 336.8398 0110488 201.8852 157.7647 15.28270412388368 AAUSAT4 1 41460U 16025E 23138.51039042 .00076947 00000-0 12070-2 0 9995 2 41460 98.1640 348.4235 0067599 159.5390 200.8591 15.50779756389166 LO-87 1 41557U 16033B 23138.66632826 .00045858 00000-0 65511-3 0 9992 2 41557 97.3874 245.4633 0007506 234.5100 125.5455 15.56094211389036 NuSat2 1 41558U 16033C 23138.65102565 .00054835 00000-0 69543-3 0 9998 2 41558 97.4149 253.2823 0007676 227.4120 132.6490 15.59249269389364 Lapan A3 1 41603U 16040E 23138.67828154 .00002413 00000-0 10735-3 0 9992 2 41603 97.1677 165.6059 0014339 64.8317 295.4406 15.22306040383001 Pratham 1 41783U 16059A 23138.56393438 .00000614 00000-0 12533-3 0 9990 2 41783 97.8708 170.9943 0032797 191.8288 168.2149 14.63909126354646 TY-1 1 41844U 16066D 23138.79407944 .00040911 00000-0 71197-3 0 9994 2 41844 97.3692 157.3438 0010758 151.8669 208.3166 15.50607725363126 CAS-2T 1 41847U 16066G 23138.21425484 .00000588 00000-0 98377-4 0 9999 2 41847 98.5052 206.9059 0358866 287.4343 68.7915 14.39618869342496 EO-88 1 42017U 17008BX 23138.15442460 .00125320 00000-0 10446-2 0 9993 2 42017 97.2126 208.3660 0004063 170.7613 189.3725 15.69691935348741 CAS-4B 1 42759U 17034B 23138.69507162 .00007087 00000-0 36335-3 0 9990 2 42759 43.0159 279.5804 0012025 272.1521 87.7950 15.16960971327155 CAS-4A 1 42761U 17034D 23138.71131665 .00006051 00000-0 31176-3 0 9995 2 42761 43.0148 278.0236 0012702 273.9200 86.0196 15.16982391327169 NIUSat 1 42766U 17036B 23138.53938412 .00017596 00000-0 47299-3 0 9996 2 42766 97.1589 170.5459 0010356 196.9083 163.1818 15.37904503328051 Aalto 1 1 42775U 17036L 23138.08336387 .00013422 00000-0 40317-3 0 9997 2 42775 97.1545 169.0169 0009647 201.7946 158.2889 15.34493372327908 URSA MAIOR 1 42776U 17036M 23138.05190103 .00016273 00000-0 46209-3 0 9992 2 42776 97.1555 170.2382 0009516 197.0451 163.0476 15.36221208327965 Max Valier Sat 1 42778U 17036P 23138.04631097 .00018132 00000-0 49367-3 0 9999 2 42778 97.1583 173.6262 0008287 193.4045 166.6982 15.37521090328094 Pegasus 1 42784U 17036V 23138.57167420 .00028814 00000-0 61073-3 0 9994 2 42784 97.1497 176.3951 0007889 184.0655 176.0532 15.45008468328409 NUDATSat 1 42787U 17036Y 23138.65456581 .00557482 12505-3 16543-2 0 9990 2 42787 97.1328 186.7280 0008720 208.9158 151.1634 15.92438581328912 SUCHAI 1 1 42788U 17036Z 23138.31585990 .00051918 00000-0 81980-3 0 9996 2 42788 97.1481 179.5155 0007645 179.5029 180.6234 15.53313646328654 SKCUBE 1 42789U 17036AA 23138.55364082 .00036375 00000-0 67274-3 0 9990 2 42789 97.1485 178.3768 0007555 178.4182 181.7095 15.48930114328526 VZLUSAT 1 1 42790U 17036AB 23138.55625030 .00397092 00000-0 15117-2 0 9999 2 42790 97.1370 186.2450 0008001 198.6817 161.4162 15.86555164329029 VENTA 1 1 42791U 17036AC 23138.52999385 .00029659 00000-0 62345-3 0 9991 2 42791 97.1510 177.5237 0007385 180.3897 179.7348 15.45251904328456 Robusta 1B 1 42792U 17036AD 23138.06085847 .00045807 00000-0 76495-3 0 9994 2 42792 97.1459 179.0073 0006970 176.3789 183.7515 15.51784023328538 D-SAT 1 42794U 17036AF 23138.43064783 .00004928 00000-0 39221-3 0 9998 2 42794 97.4634 131.8809 0118268 42.5419 318.4891 14.95418236321487 TechnoSat 1 42829U 17042E 23138.64414583 .00002109 00000-0 20515-3 0 9999 2 42829 97.3910 337.8553 0012510 331.3681 28.6852 14.93486857318080 AO-91 1 43017U 17073E 23138.62318856 .00004742 00000-0 33501-3 0 9991 2 43017 97.6350 24.1360 0235030 166.5037 194.2614 14.85690634296790 PICSAT 1 43132U 18004X 23138.52985728 .00054535 00000-0 83732-3 0 9997 2 43132 97.3314 220.9826 0005820 215.3041 144.7828 15.54092701297930 AO-92 1 43137U 18004AC 23138.21275333 .00025032 00000-0 54812-3 0 9999 2 43137 97.3298 217.1243 0005312 232.0872 127.9896 15.44093643297686 TianYi 2 1 43155U 18008A 23138.66031353 .00013225 00000-0 53759-3 0 9994 2 43155 97.3010 191.9066 0014201 59.9664 300.2981 15.24579134294154 Zhou Enlai 1 43156U 18008B 23138.68031564 .00015360 00000-0 61572-3 0 9995 2 43156 97.3057 191.9992 0011741 61.7872 298.4550 15.25042161294080 TianYi 6 1 43158U 18008D 23138.55860060 .00011841 00000-0 51791-3 0 9996 2 43158 97.3057 188.9518 0011918 65.1710 295.0764 15.22152314293917 S-Net D 1 43186U 18014G 23138.50508204 .00001855 00000-0 15257-3 0 9999 2 43186 97.6406 42.8596 0012244 258.1900 101.7951 15.00301237289104 S-Net B 1 43187U 18014H 23138.30589957 .00001834 00000-0 15088-3 0 9991 2 43187 97.6395 42.5967 0012410 257.2594 102.7242 15.00289948289079 S-Net A 1 43188U 18014J 23138.70624651 .00001811 00000-0 14908-3 0 9992 2 43188 97.6399 43.0753 0012465 256.0507 103.9331 15.00293973289136 S-Net C 1 43189U 18014K 23138.37467673 .00001884 00000-0 15492-3 0 9994 2 43189 97.6378 42.6456 0012761 254.0617 105.9200 15.00274491287632 Shaonian Xing 1 43199U 18015H 23138.67579204 .00108564 00000-0 95238-3 0 9992 2 43199 97.5429 296.0009 0009017 258.0293 101.9957 15.68453169295181 CubeBel-1 1 43666U 18083E 23138.64912594 .00021379 00000-0 60478-3 0 9992 2 43666 97.3825 170.1157 0009205 213.2420 146.8247 15.36293022252669 Changshagaoxin 1 43669U 18083H 23138.68549955 .00018554 00000-0 58034-3 0 9992 2 43669 97.3813 164.9346 0006736 209.4076 150.6788 15.33166810252428 Ten-Koh 1 43677U 18084G 23138.39040271 .00002243 00000-0 22184-3 0 9992 2 43677 98.0085 277.7436 0014040 244.3701 115.6068 14.92877920247611 PO-101 1 43678U 18084H 23138.64025398 .00001030 00000-0 10397-3 0 9990 2 43678 98.0187 282.0238 0008260 257.5161 102.5134 14.93332444247850 QO-100 1 43700U 18090A 23138.31924597 .00000145 00000-0 00000-0 0 9999 2 43700 0.0159 292.4917 0001442 159.2617 284.7322 1.00274416 16388 Reaktor Hello World 1 43743U 18096AA 23138.42946666 .00043937 00000-0 65436-3 0 9998 2 43743 97.3183 224.6891 0008978 280.7009 79.3234 15.54951496249545 MinXSS-2 1 43758U 18099A 23138.46747529 .00005457 00000-0 42877-3 0 9997 2 43758 97.5954 203.1927 0016098 222.6693 137.3282 15.01194516243284 AO-95 1 43770U 18099N 23138.13399452 .00004086 00000-0 33657-3 0 9996 2 43770 97.5778 200.4827 0010649 225.2136 134.8222 14.99569371243106 RANGE-B 1 43772U 18099Q 23138.17249845 .00005106 00000-0 40225-3 0 9995 2 43772 97.5819 203.1890 0007816 190.9709 169.1346 15.01192380243160 RANGE-A 1 43773U 18099R 23138.61836841 .00002268 00000-0 19530-3 0 9994 2 43773 97.5651 199.1296 0012100 214.1156 145.9291 14.98278832243136 MOVE-II 1 43780U 18099Y 23138.48698812 .00006196 00000-0 46217-3 0 9997 2 43780 97.5725 203.1536 0007591 246.9283 113.1143 15.03192673243274 SNUSat 2 1 43782U 18099AA 23138.43062272 .00003231 00000-0 26786-3 0 9995 2 43782 97.5731 201.2901 0012317 213.2993 146.7457 14.99457330243172 SnugLite 1 43784U 18099AC 23138.12612809 .00004805 00000-0 39018-3 0 9990 2 43784 97.5739 200.6341 0010232 211.5313 148.5299 15.00041433243163 ITASat 1 1 43786U 18099AE 23138.46377627 .00004008 00000-0 33263-3 0 9996 2 43786 97.5795 201.8360 0012278 212.3071 147.7401 14.99276678243190 EAGLET 1 1 43790U 18099AJ 23138.43051728 .00002279 00000-0 19314-3 0 9998 2 43790 97.5758 202.2968 0012311 224.0847 135.9395 14.98893338242920 ESEO 1 43792U 18099AL 23138.42738058 .00001296 00000-0 11593-3 0 9996 2 43792 97.5708 200.8511 0012004 221.1414 138.8904 14.97516156242930 CSIM 1 43793U 18099AM 23138.19192415 .00007257 00000-0 53304-3 0 9991 2 43793 97.5791 204.1434 0015704 223.7562 136.2420 15.03642276243078 Astrocast 0.1 1 43798U 18099AS 23138.43590590 .00006184 00000-0 47379-3 0 9992 2 43798 97.5898 203.7683 0012770 191.1437 168.9507 15.02136718243303 JO-97 1 43803U 18099AX 23138.37674082 .00004295 00000-0 34505-3 0 9999 2 43803 97.5698 201.7188 0012075 194.8718 165.2152 15.00499787243229 Suomi 100 1 43804U 18099AY 23138.36653210 .00003754 00000-0 30431-3 0 9992 2 43804 97.5689 201.5372 0016289 211.8167 148.2074 15.00181349243228 Al Farabi 2 1 43805U 18099AZ 23138.14211110 .00005396 00000-0 41820-3 0 9996 2 43805 97.5570 202.3086 0011395 197.4958 162.5876 15.01769028243247 CHOMPTT 1 43855U 18104G 23138.53635162 .00016905 00000-0 43327-3 0 9990 2 43855 85.0320 186.3044 0014661 78.3748 281.9147 15.39124127246016 ISAT 1 43879U 18111D 23138.32085531 .00004357 00000-0 33610-3 0 9992 2 43879 97.6500 43.2024 0011424 258.0450 101.9494 15.02060074239851 UWE-4 1 43880U 18111E 23138.37858236 .00003634 00000-0 28225-3 0 9992 2 43880 97.6369 44.0367 0015195 274.3762 85.5727 15.01871174239891 Sparrow 1 43881U 18111F 23138.53518562 .00004886 00000-0 37297-3 0 9995 2 43881 97.6549 44.7176 0009086 313.4932 46.5537 15.02418278237935 Lume 1 1 43908U 18111AJ 23138.62278851 .00024073 00000-0 51554-3 0 9991 2 43908 97.1444 22.3495 0010745 314.0597 45.9766 15.44710466244821 FO-99 1 43937U 19003F 23138.55926371 .00040290 00000-0 71772-3 0 9996 2 43937 97.0891 166.1919 0012914 35.9312 324.2806 15.49917560241453 AstroCast 0.2 1 44083U 19018F 23138.63910415 .00052054 00000-0 10157-2 0 9996 2 44083 97.2686 198.2266 0003051 20.6405 339.4968 15.47332512229849 AISTechSat 3 1 44103U 19018AB 23138.65918670 .00018889 00000-0 47998-3 0 9994 2 44103 97.2556 197.3500 0008830 31.6110 328.5665 15.39637484229967 AISat 1 1 44104U 19018AC 23138.23975747 .00014891 00000-0 29987-3 0 9994 2 44104 97.3731 229.0647 0041121 9.1718 351.0273 15.45743618231090 Prox-1 1 44339U 19036A 23138.55447308 .00004449 00000-0 88093-3 0 9997 2 44339 24.0005 232.8816 0009458 302.4023 57.5554 14.59108072207261 Move-IIb 1 44398U 19038N 23138.45123007 .00035050 00000-0 94016-3 0 9994 2 44398 97.6590 119.9178 0015943 49.1621 311.1002 15.37760667214099 SONATE 1 44400U 19038Q 23138.49552007 .00008438 00000-0 38439-3 0 9995 2 44400 97.6820 115.5469 0022613 58.9474 301.3976 15.20705260213720 BeeSat 9 1 44412U 19038AC 23138.70174022 .00019172 00000-0 68710-3 0 9991 2 44412 97.6726 118.4047 0017780 56.2475 304.0455 15.28630717213659 JAISAT-1 1 44419U 19038F 23138.46136220 .00017205 00000-0 61121-3 0 9993 2 44419 97.6724 119.2259 0016946 54.3656 305.9159 15.28958152213995 Taurus 1 1 44530U 19059C 23138.67868037 .00003276 00000-0 85925-3 0 9992 2 44530 98.5526 246.0340 0013830 177.4580 182.6686 14.49851663194366 Duchifat 3 1 44854U 19089C 23138.63730013 .00006368 00000-0 43537-3 0 9990 2 44854 36.9622 267.8308 0008321 73.4235 286.7422 15.05822869188382 OPS-SAT 1 44878U 19092F 23138.57535307 .00017829 00000-0 55733-3 0 9997 2 44878 97.4754 326.9727 0008722 234.3866 125.6564 15.33181115189259 TO-108 1 44881U 19093C 23138.66658492 .00000892 00000-0 11762-3 0 9999 2 44881 97.8617 217.6208 0015044 169.1825 190.9715 14.82470698184427 FloripaSat 1 1 44885U 19093G 23138.64707172 .00003178 00000-0 37291-3 0 9996 2 44885 97.8682 220.1413 0014162 171.5631 188.5825 14.85587854184568 RS-44 1 44909U 19096E 23138.12213825 .00000027 00000-0 69156-4 0 9992 2 44909 82.5243 7.9267 0216344 257.2389 100.4456 12.79720560158316 BY70-2 1 45857U 20042B 23138.66064821 .00013363 00000-0 14085-2 0 9993 2 45857 97.9261 218.4824 0010473 109.4477 250.7872 14.89416224155149 UPMSat 2 1 46276U 20061E 23138.19623328 .00006742 00000-0 28981-3 0 9995 2 46276 97.3483 206.4108 0002874 91.8185 268.3381 15.22977381149724 AmicalSat 1 46287U 20061R 23138.18386546 .00012648 00000-0 60054-3 0 9993 2 46287 97.4023 205.2699 0002536 161.6383 198.4944 15.19373913149152 SALSAT 1 46495U 20068K 23138.38616056 .00003340 00000-0 22400-3 0 9997 2 46495 97.7691 86.0837 0014406 215.7494 144.2770 15.07483249144588 CAPE 3 1 47309U 21002A 23138.51053504 .00021379 00000-0 54520-3 0 9999 2 47309 60.6761 174.3370 0017165 166.2281 193.9286 15.39422908129713 AO-109 1 47311U 21002C 23138.60382889 .00015589 00000-0 42443-3 0 9990 2 47311 60.6795 172.1462 0017207 158.7040 201.4774 15.37603119129740 MiTEE 1 1 47314U 21002F 23138.72721596 .00278851 00000-0 14769-2 0 9990 2 47314 60.6619 139.8287 0004626 60.2046 299.9527 15.79422921130316 ExoCube 2 1 47319U 21002L 23138.65415342 .00015130 00000-0 42191-3 0 9996 2 47319 60.6776 173.9865 0017486 162.9497 197.2188 15.36873431129673 UVSQ-SAT 1 47438U 21006AB 23138.15548460 .00011256 00000-0 47323-3 0 9992 2 47438 97.3871 195.7105 0010521 178.7389 181.3876 15.23526312128075 YUSAT 1 1 47439U 21006AC 23138.16198060 .00014918 00000-0 58580-3 0 9996 2 47439 97.3877 196.3633 0010129 176.7897 183.3408 15.25758745128118 SOMP 2b 1 47445U 21006AJ 23138.58979204 .00010450 00000-0 44876-3 0 9996 2 47445 97.3835 195.4350 0010204 182.2662 177.8530 15.22830381128119 IDEASSat 1 47458U 21006AX 23138.16576215 .00010392 00000-0 45353-3 0 9995 2 47458 97.3932 195.7857 0009573 181.8454 178.2749 15.22286800128036 CubeSX-Sirius-HSE 1 47951U 21022V 23138.64890795 .00007167 00000-0 40876-3 0 9997 2 47951 97.5012 36.4930 0021057 78.4111 281.9482 15.12881797118568 CubeSX-HSE 1 47952U 21022W 23138.68951465 .00006361 00000-0 36266-3 0 9997 2 47952 97.5008 36.5775 0020922 77.7958 282.5615 15.12943852118570 KSU-Cubesat 1 47954U 21022Y 23138.22877971 .00007349 00000-0 40936-3 0 9994 2 47954 97.5015 36.4604 0020435 78.3145 282.0378 15.13730384118244 GRBAlpha 1 47959U 21022AD 23138.67769922 .00007095 00000-0 40323-3 0 9992 2 47959 97.5011 36.6435 0020675 78.1209 282.2339 15.13020822117397 Orbicraft-Zorkiy 1 47960U 21022AE 23138.64797818 .00007774 00000-0 43361-3 0 9995 2 47960 97.5042 37.0002 0020397 77.3386 283.0124 15.13663468118094 STECCO 1 47962U 21022AG 23138.69782099 .00012774 00000-0 60919-3 0 9991 2 47962 97.5010 39.1822 0015210 69.4053 290.8811 15.19122133117560 DO-111 1 47963U 21022AH 23138.54928948 .00125820 00000-0 21331-2 0 9992 2 47963 97.5004 45.7132 0010938 74.6687 285.5773 15.51001603117982 MO-110 1 47964U 21022AJ 23138.30188967 .00014141 00000-0 65895-3 0 9993 2 47964 97.5025 39.3456 0017256 66.0609 294.2431 15.19869467117536 FEES 1 48082U 21022AL 23138.17395136 .00023715 00000-0 93725-3 0 9998 2 48082 97.5014 40.1987 0013082 64.6718 295.5873 15.25414404117283 TUBIN 1 48900U 21059X 23138.64723641 .00006597 00000-0 31853-3 0 9998 2 48900 97.5956 272.0770 0009504 32.2946 327.8869 15.18963732104691 IT-SPINS 1 49017U 21013G 23138.52961240 .00023408 00000-0 57053-3 0 9994 2 49017 51.5917 223.9506 0005952 234.3458 125.6972 15.40767837105138 LEDSAT 1 49069U 21073D 23138.37721799 .00005673 00000-0 31711-3 0 9990 2 49069 97.4839 209.7660 0023526 220.1354 139.8140 15.13651540 96399 CUTE 1 49263U 21088D 23138.17024028 .00006434 00000-0 41933-3 0 9994 2 49263 97.5462 204.4969 0017773 11.7869 348.3772 15.08118908 89765 TeikyoSat 4 1 49396U 21102B 23138.55608057 .00002033 00000-0 15877-3 0 9999 2 49396 97.5172 191.4543 0015005 182.6014 177.5136 15.02127263 83329 Z-Sat 1 49399U 21102E 23138.62644026 .00003188 00000-0 22988-3 0 9999 2 49399 97.4872 192.6305 0022556 166.9934 193.1879 15.04644957 83449 KOSEN 1 1 49402U 21102H 23138.60156546 .00002942 00000-0 20315-3 0 9996 2 49402 97.4798 193.0679 0021965 154.9324 205.2975 15.06337211 83506 HO-113 1 50466U 21131B 23138.68587722 .00000495 00000-0 17511-3 0 9997 2 50466 98.5515 220.3232 0003618 212.9202 147.1761 14.38883199 73119 Tevel-3 1 50988U 22002E 23138.64345396 .00013468 00000-0 55765-3 0 9996 2 50988 97.4352 205.8319 0006630 347.1640 12.9427 15.24031816 74265 Tevel-8 1 50989U 22002F 23138.66093630 .00014428 00000-0 59821-3 0 9994 2 50989 97.4368 205.9053 0006657 345.5832 14.5215 15.23967994 74260 Tevel-5 1 50998U 22002Q 23138.66920241 .00014395 00000-0 58195-3 0 9997 2 50998 97.4345 206.2074 0007712 338.5257 21.5656 15.24813804 74299 Tevel-6 1 50999U 22002R 23138.66772231 .00014462 00000-0 58463-3 0 9995 2 50999 97.4345 206.2013 0007729 338.3506 21.7404 15.24813597 74298 Tevel-1 1 51013U 22002AF 23138.65238622 .00013821 00000-0 57288-3 0 9995 2 51013 97.4348 205.7879 0006553 346.3277 13.7781 15.23988971 74265 Grizu-263a 1 51025U 22002AT 23138.13119696 .00055399 00000-0 13379-2 0 9998 2 51025 97.4501 210.0051 0005416 315.6213 44.4598 15.40982302 74422 NO-116 1 51031U 22002AZ 23138.12774911 .00026152 00000-0 88150-3 0 9996 2 51031 97.4473 207.8981 0007979 336.7489 23.3389 15.30684004 74306 IRIS-A 1 51044U 22002BN 23138.16866714 .00006783 00000-0 32846-3 0 9996 2 51044 97.4365 204.0938 0007583 355.7186 4.3982 15.18856673 74102 Tevel-7 1 51062U 22002CG 23138.66225291 .00014118 00000-0 58521-3 0 9999 2 51062 97.4364 205.8807 0006596 344.9040 15.1999 15.23982421 74269 Tevel-4 1 51063U 22002CH 23138.66737265 .00013925 00000-0 57809-3 0 9992 2 51063 97.4363 205.8715 0006632 344.8752 15.2286 15.23934855 74265 Tevel-2 1 51069U 22002CP 23138.64530517 .00013859 00000-0 57369-3 0 9994 2 51069 97.4349 205.8064 0006591 346.6979 13.4084 15.24032486 74263 DELFI-PQ 1 51074U 22002CU 23138.66278904 .00027686 00000-0 84679-3 0 9998 2 51074 97.4609 210.6163 0008286 5.0583 355.0741 15.33788073 74470 SO-115 1 51080U 22002DA 23137.99929879 .00017338 00000-0 64575-3 0 9990 2 51080 97.4629 208.6857 0010020 14.4457 345.7067 15.27486460 74283 SO-114 1 51081U 22002DB 23138.44882169 .00016208 00000-0 60090-3 0 9995 2 51081 97.4619 209.1042 0010193 12.0677 348.0805 15.27650288 74359 OreSat0 1 52017U 22026K 23138.50338454 .00011698 00000-0 48340-3 0 9993 2 52017 97.5087 140.8292 0022940 182.3423 177.7710 15.23911591 65029 Planetum 1 1 52738U 22057G 23138.32577284 .00010577 00000-0 50024-3 0 9990 2 52738 97.5351 254.3214 0008242 95.9514 264.2660 15.19535385 54120 Foresail-1 1 52766U 22057AL 23138.61884239 .00007473 00000-0 36044-3 0 9991 2 52766 97.5467 255.4954 0013321 76.2914 283.9802 15.18915495 54198 SNUGLITE 2 1 52899U 22065F 23138.39195940 .00000981 00000-0 21745-3 0 9995 2 52899 98.0650 284.0705 0006936 316.3888 43.6763 14.59233705 46514 CTIM 1 52950U 22074G 23138.45342424 .00024125 00000-0 58261-3 0 9990 2 52950 44.9967 165.1731 0012329 35.0575 325.1123 15.40742316 49012 IO-117 1 53106U 22080B 23130.54224914 -.00000003 00000-0 00000-0 0 9991 2 53106 70.1661 332.8054 0008272 193.3243 166.7199 6.42557278 19338 AstroBioCubeSat 1 53107U 22080C 23025.30817895 -.00000003 00000-0 00000-0 0 9995 2 53107 70.1710 9.4734 0013545 210.3158 149.6718 6.42110537 12478 SelfieSat 1 53951U 22057BC 23138.32299718 .00013167 00000-0 59575-3 0 9999 2 53951 97.5400 254.8649 0009944 89.5330 270.7044 15.20994200 54142 FO-118 1 54684U 22167C 23138.65972069 .00009089 00000-0 51130-3 0 9995 2 54684 97.5583 276.4616 0014636 79.7373 280.5507 15.13398861 24215 KILICSAT 1 56181U 23054D 23138.66787418 .00008687 00000-0 38317-3 0 9993 2 56181 97.4085 33.9932 0011313 131.7415 228.4790 15.21962485 5680 SSS-2B 1 56184U 23054G 23138.59960916 .00009311 00000-0 40853-3 0 9997 2 56184 97.4147 33.9597 0012629 132.9322 227.2976 15.22106123 5672 CIRBE 1 56188U 23054L 23138.52759602 .00010955 00000-0 47515-3 0 9990 2 56188 97.4097 33.8823 0011752 126.7267 233.5051 15.22463145 5669 INSPIRE-Sat 7 1 56211U 23054AK 23138.56221920 .00011897 00000-0 49252-3 0 9994 2 56211 97.4127 34.0007 0016984 113.9526 246.3492 15.23952756 5679 RoseyCubesat 1 1 56212U 23054AL 23138.23087475 .00012737 00000-0 52432-3 0 9992 2 56212 97.4131 33.6831 0017400 114.5349 245.7704 15.24118669 5621 ARKSAT 1 1 56311U 98067VC 23138.36859342 .00044986 00000-0 69455-3 0 9996 2 56311 51.6372 115.9355 0007367 2.0727 358.0293 15.53638681 3720 AuroraSat 1 56312U 98067VD 23138.36836772 .00051334 00000-0 78778-3 0 9992 2 56312 51.6368 115.9338 0007073 1.7595 358.3419 15.53749632 3755 Ex-Alta 2 1 56313U 98067VE 23138.36898020 .00043834 00000-0 67744-3 0 9994 2 56313 51.6369 115.9376 0007217 1.3538 358.7471 15.53624028 3744 LightCube 1 56314U 98067VF 23138.36996396 .00048793 00000-0 75030-3 0 9996 2 56314 51.6366 115.9443 0006769 344.9372 15.1416 15.53718484 3776 NEUDOSE 1 56315U 98067VG 23138.37623025 .00032185 00000-0 51418-3 0 9996 2 56315 51.6370 115.9849 0007413 343.2931 16.7814 15.52852813 3720 YukonSat 1 56316U 98067VH 23138.37421472 .00038937 00000-0 61325-3 0 9998 2 56316 51.6371 115.9719 0007134 343.8090 16.2671 15.53155992 3743 /EX
